Flag for U.S.A. Weather past 2 weeks in Woodstock, New York, U.S.A.

Now
25 °F

Light snow. Ice fog.


Feels Like: 25 °F
Forecast: 16 / 31 °F
Wind: No wind

Location: Dutchess County Airport

Current Time: Mar 1, 2015 at 11:08:10 PM

Latest Report: Mar 1, 2015 at 9:53 PM


Visibility: 2 mi

Pressure: 30.21 "Hg

Humidity: 85%

Dew point: 21 °F

Location of WoodstockLocation

Historic Weather in Woodstock — Graph

°F

Woodstock temperature yesterday

Maximum temperature yesterday: 29 °F (at 3:53 PM)
Minimum temperature yesterday: -5 °F (at 5:53 AM)
Average temperature yesterday: 12 °F

Past Weeks' High & Low Weather Summary

 TemperatureHumidityPressure
High41 °F (Feb 22, 3:53 PM)92% (Feb 21, 10:53 PM)30.82 "Hg (Feb 21, 10:53 PM)
Low-11 °F (Feb 16, 7:53 AM)20% (Feb 16, 2:53 PM)29.46 "Hg (Feb 15, 12:53 AM)
Average15 °F56%30.14 "Hg
* Reported Feb 14 9:00 PM — Mar 1 8:53 PM, Woodstock, Weather by CustomWeather, © 2015

Note: Actual official high and low records may vary slightly from our data, if they occured in-between our weather recording intervals... More about our weather records

Advertising

Woodstock weather history for previous 24 hours

 ConditionsComfort  
Time TempWeatherWind HumidityBarometerVisibility
8:53 PM
Sun, Mar 1
25 °FLight snow. Ice fog.No wind85%30.24 "Hg1 mi
7:53 PM25 °FLight snow. Ice fog.No wind85%30.28 "Hg1 mi
6:53 PM25 °FLight snow. Ice fog.3 mph85%30.30 "Hg1 mi
5:53 PM25 °FLight snow. Ice fog.3 mph85%30.32 "Hg1 mi
4:53 PM25 °FSnow. Ice fog.3 mph81%30.35 "Hg1 mi
3:53 PM25 °FSnow. Ice fog.3 mph81%30.40 "Hg1 mi
2:53 PM25 °FLight snow. Mostly cloudy.8 mph78%30.43 "Hg1 mi
1:53 PM25 °FLight snow. Mostly cloudy.5 mph75%30.48 "Hg2 mi
12:53 PM26 °FOvercast.9 mph66%30.52 "Hg8 mi
11:53 AM22 °FLight snow. Ice fog.3 mph85%30.57 "Hg1 mi
11:04 AM20 °FSnow. Mostly cloudy.No wind82%30.59 "Hg1 mi
9:53 AM16 °FSnow. Ice fog.No wind80%30.62 "Hg1 mi
9:02 AM14 °FLight snow. Overcast.No wind73%30.64 "Hg1 mi
8:53 AM14 °FLight snow. Mostly cloudy.3 mph67%30.63 "Hg1 mi
7:53 AM12 °FOvercast.No wind67%30.64 "Hg8 mi
6:53 AM10 °FOvercast.No wind67%30.67 "Hg9 mi
5:53 AM9 °FOvercast.No wind70%30.68 "Hg10 mi
4:53 AM7 °FOvercast.No wind70%30.68 "Hg10 mi
3:53 AM4 °FClear.No wind76%30.68 "Hg10 mi
2:53 AM2 °FClear.No wind72%30.69 "Hg9 mi
1:53 AM2 °FClear.No wind72%30.72 "Hg10 mi
12:53 AM3 °FClear.3 mph72%30.71 "Hg10 mi
11:53 PM
Sat, Feb 28
5 °FClear.No wind72%30.72 "Hg8 mi
Weather by CustomWeather, © 2015

See weather overviewHow to use our weather pages